HELLAS-SAT 2 (27811 NORAD) Tracking and Keplerian Element Data

This shows tracking and keplerian element data for the satellite.

Feedback or suggestion? Click here.




ElementValue
Catalog27811
NameHELLAS-SAT 2
Epoch Orbit3784
Epoch Day34.32442663
Epoch Year2025
RAAN73.8231
Inclination6.1047
Eccentricity0.0008859
Argument of Perigee219.6126
Mean Anonmoly307.0428
Mean Motion1.0027107
Decay Rate-8.1E-07
L11 27811U 03020A 25034.32442663 -.00000081 00000+0 00000+0 0 9996
L22 27811 6.1047 73.8231 0008859 219.6126 307.0428 1.00271070 37844



Live tracking and technical data element details for HELLAS-SAT 2 (NORAD 27811). HELLAS-SAT 2 can be tracked NOW for your location showing map with azimuth and elevation plus other details from your city location.







IsCatalogInMostPopularTable: catalog: 27811, numindb: 550
Update: records affected: 1



GetName: 27811 HELLAS-SAT 2

Hit Count: updated at: Thu, 15 May 2025 19:23:05 GMT